User: anonymous   Login
Location: Unspecified
(0.0000°N, 0.0000°E)
Time: 21:48:53
(UTC+00:00)
Language:

AEROCUBE 6B - Orbit

View from above orbital plane
View from above orbital plane
View from above satellite
View from above satellite

Ground track
Ground track

The orbit data is extracted from the following two-line orbital elements,

1 40046U 14033AN  18048.85534114 +.00000315 +00000-0 +53123-4 0  9994
2 40046 097.8394 292.1837 0056356 216.5064 143.2298 14.75051944196697
Epoch (UTC): 17 February 2018 20:31:41
Eccentricity: 0.0056356
inclination: 97.8394°
perigee height: 605 km
apogee height: 684 km
right ascension of ascending node: 292.1837°
argument of perigee: 216.5064°
revolutions per day: 14.75051944
mean anomaly at epoch: 143.2298°
orbit number at epoch: 19669

The dashed part of the orbit path shows where the satellite is in the earth's shadow,  

DLR